| time (UTC) | temp C | wind direction | speed KPH | gust KPH | rain 1hr cm | rain 24hr cm | rain mn cm | humidity % | barometer mb |
| 20260508014649 | 0 | 198 | 0.0 | 0.0 | 0.00 | 0.00 | 0.00 | 82 | 1021.2 |
| 20260508013050 | 0 | 198 | 0.0 | 0.0 | 0.00 | 0.00 | 0.00 | 82 | 1021.1 |
| 20260508011650 | 0 | 198 | 0.0 | 0.0 | 0.00 | 0.00 | 0.00 | 80 | 1021.0 |
| 20260508010058 | 0 | 198 | 0.0 | 0.0 | 0.00 | 0.00 | 0.00 | 80 | 1020.9 |
| 20260508004649 | 0 | 198 | 0.0 | 0.0 | 0.00 | 0.00 | 0.00 | 79 | 1020.9 |
| 20260508003103 | 0 | 198 | 0.0 | 0.0 | 0.00 | 0.00 | 0.00 | 79 | 1020.8 |
| 20260508001649 | 0 | 198 | 0.0 | 0.0 | 0.00 | 0.00 | 0.00 | 80 | 1020.7 |
| 20260508000049 | 0 | 198 | 0.0 | 0.0 | 0.00 | 0.00 | 0.00 | 79 | 1020.6 |
| 20260507234650 | 0 | 198 | 0.0 | 0.0 | 0.00 | 0.00 | 0.00 | 79 | 1020.6 |
| 20260507233050 | 1 | 198 | 0.0 | 0.0 | 0.00 | 0.00 | 0.00 | 79 | 1020.5 |
| 20260507231649 | 1 | 198 | 0.0 | 0.0 | 0.00 | 0.00 | 0.00 | 78 | 1020.4 |
| 20260507230052 | 1 | 198 | 0.0 | 0.0 | 0.00 | 0.00 | 0.00 | 77 | 1020.3 |
| 20260507224650 | 1 | 198 | 0.0 | 0.0 | 0.00 | 0.00 | 0.00 | 76 | 1020.3 |
| 20260507223050 | 1 | 198 | 0.0 | 0.0 | 0.00 | 0.00 | 0.00 | 74 | 1020.2 |
| 20260507221650 | 2 | 198 | 0.0 | 0.0 | 0.00 | 0.00 | 0.00 | 73 | 1020.2 |
| 20260507220049 | 2 | 198 | 0.0 | 0.0 | 0.00 | 0.00 | 0.00 | 72 | 1020.0 |
| 20260507214650 | 3 | 198 | 0.0 | 0.0 | 0.00 | 0.00 | 0.00 | 70 | 1019.9 |
| 20260507213104 | 3 | 198 | 0.0 | 0.0 | 0.00 | 0.00 | 0.00 | 69 | 1019.7 |
| 20260507211651 | 3 | 198 | 0.0 | 0.0 | 0.00 | 0.00 | 0.00 | 67 | 1019.6 |
| 20260507210053 | 4 | 198 | 0.0 | 3.2 | 0.00 | 0.00 | 0.00 | 65 | 1019.5 |
| 20260507204651 | 5 | 111 | 0.0 | 0.0 | 0.00 | 0.00 | 0.00 | 58 | 1019.4 |
| 20260507203050 | 5 | 111 | 0.0 | 0.0 | 0.00 | 0.00 | 0.00 | 53 | 1019.3 |
| 20260507201652 | 6 | 111 | 0.0 | 0.0 | 0.00 | 0.00 | 0.00 | 50 | 1019.1 |
| 20260507200050 | 6 | 111 | 0.0 | 0.0 | 0.00 | 0.00 | 0.00 | 48 | 1018.9 |
| 20260507194650 | 7 | 111 | 0.0 | 0.0 | 0.00 | 0.00 | 0.00 | 44 | 1018.8 |
| 20260507193057 | 8 | 111 | 0.0 | 0.0 | 0.00 | 0.00 | 0.00 | 40 | 1018.6 |
| 20260507191651 | 10 | 111 | 0.0 | 0.0 | 0.00 | 0.00 | 0.00 | 35 | 1018.5 |
| 20260507190100 | 11 | 111 | 0.0 | 1.6 | 0.00 | 0.00 | 0.00 | 30 | 1018.2 |
| 20260507184650 | 11 | 111 | 0.0 | 3.2 | 0.00 | 0.00 | 0.00 | 27 | 1018.0 |
| 20260507183057 | 12 | 116 | 0.0 | 4.8 | 0.00 | 0.00 | 0.00 | 26 | 1017.8 |
| 20260507181651 | 12 | 96 | 1.6 | 4.8 | 0.00 | 0.00 | 0.00 | 24 | 1017.8 |
| 20260507180053 | 12 | 98 | 0.0 | 4.8 | 0.00 | 0.00 | 0.00 | 23 | 1017.7 |
| 20260507174651 | 12 | 95 | 1.6 | 4.8 | 0.00 | 0.00 | 0.00 | 23 | 1017.6 |
| 20260507173055 | 13 | 66 | 0.0 | 1.6 | 0.00 | 0.00 | 0.00 | 21 | 1017.5 |
| 20260507171650 | 14 | 306 | 1.6 | 6.4 | 0.00 | 0.00 | 0.00 | 20 | 1017.5 |
| 20260507170051 | 13 | 305 | 1.6 | 8.0 | 0.00 | 0.00 | 0.00 | 21 | 1017.3 |
| 20260507164654 | 13 | 304 | 1.6 | 4.8 | 0.00 | 0.00 | 0.00 | 21 | 1017.4 |
| 20260507163051 | 12 | 347 | 3.2 | 9.7 | 0.00 | 0.00 | 0.00 | 22 | 1017.3 |
| 20260507161649 | 13 | 346 | 0.0 | 6.4 | 0.00 | 0.00 | 0.00 | 22 | 1017.3 |
| 20260507160058 | 13 | 340 | 1.6 | 9.7 | 0.00 | 0.00 | 0.00 | 21 | 1017.3 |
| 20260507154650 | 13 | 322 | 1.6 | 11.3 | 0.00 | 0.00 | 0.00 | 21 | 1017.3 |
| 20260507153055 | 13 | 338 | 3.2 | 8.0 | 0.00 | 0.00 | 0.00 | 22 | 1017.2 |
| 20260507151654 | 13 | 338 | 3.2 | 9.7 | 0.00 | 0.00 | 0.00 | 22 | 1017.2 |
| 20260507150053 | 13 | 338 | 4.8 | 11.3 | 0.00 | 0.00 | 0.00 | 22 | 1017.1 |
| 20260507144650 | 13 | 275 | 3.2 | 9.7 | 0.00 | 0.00 | 0.00 | 25 | 1017.1 |
| 20260507143050 | 12 | 276 | 6.4 | 12.9 | 0.00 | 0.00 | 0.00 | 24 | 1017.0 |
| 20260507141651 | 13 | 296 | 4.8 | 14.5 | 0.00 | 0.00 | 0.00 | 25 | 1017.0 |
| 20260507134652 | 13 | 343 | 0.0 | 4.8 | 0.00 | 0.00 | 0.00 | 28 | 1017.0 |
| 20260507133051 | 12 | 317 | 3.2 | 6.4 | 0.00 | 0.00 | 0.00 | 28 | 1017.1 |
| 20260507131650 | 12 | 55 | 0.0 | 9.7 | 0.00 | 0.00 | 0.00 | 28 | 1017.1 |
| 20260507124650 | 11 | 96 | 1.6 | 8.0 | 0.00 | 0.00 | 0.00 | 28 | 1017.0 |
| 20260507123058 | 12 | 338 | 3.2 | 11.3 | 0.00 | 0.00 | 0.00 | 28 | 1017.2 |
| 20260507121652 | 11 | 86 | 1.6 | 6.4 | 0.00 | 0.00 | 0.00 | 31 | 1017.0 |
| 20260507120052 | 12 | 251 | 0.0 | 8.0 | 0.00 | 0.00 | 0.00 | 30 | 1016.9 |
| 20260507114654 | 11 | 214 | 1.6 | 9.7 | 0.00 | 0.00 | 0.00 | 31 | 1017.0 |
| 20260507113052 | 11 | 231 | 0.0 | 8.0 | 0.00 | 0.00 | 0.00 | 32 | 1017.1 |
| 20260507111653 | 10 | 292 | 3.2 | 11.3 | 0.00 | 0.00 | 0.00 | 34 | 1017.0 |
| 20260507110052 | 10 | 92 | 1.6 | 6.4 | 0.00 | 0.00 | 0.00 | 33 | 1017.2 |
| 20260507104651 | 10 | 126 | 1.6 | 8.0 | 0.00 | 0.00 | 0.00 | 35 | 1017.1 |
| 20260507103054 | 10 | 181 | 0.0 | 6.4 | 0.00 | 0.00 | 0.00 | 35 | 1017.0 |
| 20260507101653 | 10 | 345 | 3.2 | 11.3 | 0.00 | 0.00 | 0.00 | 37 | 1016.9 |
| 20260507100053 | 9 | 50 | 1.6 | 8.0 | 0.00 | 0.00 | 0.00 | 37 | 1017.0 |
| 20260507094651 | 9 | 157 | 1.6 | 8.0 | 0.00 | 0.00 | 0.00 | 38 | 1017.0 |
| 20260507093051 | 8 | 71 | 3.2 | 9.7 | 0.00 | 0.00 | 0.00 | 40 | 1017.0 |
| 20260507091652 | 8 | 129 | 1.6 | 9.7 | 0.00 | 0.00 | 0.00 | 39 | 1017.1 |
| 20260507090051 | 8 | 127 | 3.2 | 11.3 | 0.00 | 0.00 | 0.00 | 40 | 1017.0 |
| 20260507084654 | 8 | 116 | 1.6 | 8.0 | 0.00 | 0.00 | 0.00 | 41 | 1017.1 |
| 20260507083056 | 7 | 98 | 4.8 | 11.3 | 0.00 | 0.00 | 0.00 | 40 | 1017.0 |
| 20260507081651 | 7 | 63 | 0.0 | 9.7 | 0.00 | 0.00 | 0.00 | 42 | 1017.0 |
| 20260507080114 | 7 | 9 | 3.2 | 9.7 | 0.00 | 0.00 | 0.00 | 46 | 1016.8 |
| 20260507074653 | 7 | 46 | 4.8 | 11.3 | 0.00 | 0.00 | 0.00 | 46 | 1016.8 |
| 20260507073100 | 6 | 59 | 0.0 | 11.3 | 0.00 | 0.00 | 0.00 | 52 | 1016.7 |
| 20260507071652 | 6 | 78 | 1.6 | 8.0 | 0.00 | 0.00 | 0.00 | 56 | 1016.7 |
| 20260507070053 | 6 | 42 | 3.2 | 8.0 | 0.00 | 0.00 | 0.00 | 55 | 1016.6 |
| 20260507064653 | 5 | 71 | 1.6 | 9.7 | 0.00 | 0.00 | 0.00 | 59 | 1016.6 |
| 20260507063055 | 5 | 86 | 1.6 | 6.4 | 0.00 | 0.00 | 0.00 | 59 | 1016.6 |
| 20260507061651 | 5 | 75 | 0.0 | 8.0 | 0.00 | 0.00 | 0.00 | 57 | 1016.4 |
| 20260507060052 | 5 | 94 | 0.0 | 4.8 | 0.00 | 0.00 | 0.00 | 58 | 1016.3 |
| 20260507054652 | 5 | 42 | 0.0 | 4.8 | 0.00 | 0.00 | 0.00 | 58 | 1016.2 |
| 20260507053055 | 4 | 70 | 0.0 | 1.6 | 0.00 | 0.00 | 0.00 | 59 | 1016.1 |
| 20260507051652 | 4 | 61 | 0.0 | 1.6 | 0.00 | 0.00 | 0.00 | 58 | 1016.0 |
| 20260507050052 | 3 | 59 | 0.0 | 4.8 | 0.00 | 0.00 | 0.00 | 60 | 1016.0 |
| 20260507044653 | 2 | 355 | 3.2 | 6.4 | 0.00 | 0.00 | 0.00 | 59 | 1015.9 |
| 20260507043052 | 2 | 346 | 0.0 | 0.0 | 0.00 | 0.00 | 0.00 | 62 | 1015.8 |
| 20260507041652 | 2 | 346 | 0.0 | 0.0 | 0.00 | 0.00 | 0.00 | 65 | 1015.8 |
| 20260507034653 | 0 | 326 | 0.0 | 0.0 | 0.00 | 0.00 | 0.00 | 74 | 1015.5 |
| 20260507033056 | 0 | 326 | 0.0 | 3.2 | 0.00 | 0.00 | 0.00 | 77 | 1015.4 |
| 20260507031652 | -1 | 326 | 0.0 | 4.8 | 0.00 | 0.00 | 0.00 | 79 | 1015.3 |
| 20260507030056 | -1 | 317 | 0.0 | 0.0 | 0.00 | 0.00 | 0.00 | 76 | 1015.2 |
| 20260507024652 | -1 | 317 | 0.0 | 0.0 | 0.00 | 0.00 | 0.00 | 74 | 1015.1 |
| 20260507023053 | 0 | 317 | 0.0 | 0.0 | 0.00 | 0.00 | 0.00 | 72 | 1015.0 |
| 20260507021652 | 0 | 317 | 0.0 | 3.2 | 0.00 | 0.00 | 0.00 | 70 | 1014.9 |